Weather History for Muscle Shoals, AL

Change the Weather History Date:

Tuesday, October 1, 2013

  Actual Average Record
Temperature  
Mean Temperature 72 °F 67 °F  
Max Temperature 85 °F 79 °F 99 °F (1925)
Min Temperature 59 °F 55 °F 35 °F (1920)
Degree Days  
Heating Degree Days 0 2  
Month to date heating degree days 0 2  
Since 1 July heating degree days 0 17  
Cooling Degree Days 7 4  
Month to date cooling degree days 7 4  
Year to date cooling degree days 1797 1806  
Growing Degree Days 20 (Base 50)    
Moisture  
Dew Point 62 °F    
Average Humidity 73    
Maximum Humidity 90    
Minimum Humidity 55    
Precipitation  
Precipitation 0.00 in 0.11 in 2.43 in (1988)
Month to date precipitation 0.00 0.11  
Year to date precipitation 45.35 39.54  
Snow  
Snow 0.00 in - - ()
Month to date snowfall 0.0  
Since 1 July snowfall 0.0  
Since 1 September snowfall 0.0  
Snow Depth 0.00 in    
Sea Level Pressure  
Sea Level Pressure 30.07 in    
Wind  
Wind Speed 3 mph (SSE)    
Max Wind Speed 9 mph    
Max Gust Speed 13 mph    
Visibility 6 miles    
Events      
T = Trace of Precipitation, MM = Missing Value Source: NWS Daily Summary

Daily Weather History Graph

Daily Weather History Graph

Search for Another Location

Airport:

Trip Planner

Search our weather history database for the weather conditions in past years. The results will help you decide how hot, cold, wet, or windy it might be!

Date:

Astronomy

Oct. 01, 2013 Rise Set
Actual Time 6:45 AM CDT 6:34 PM CDT
Civil Twilight 6:20 AM CDT 6:59 PM CDT
Nautical Twilight 5:50 AM CDT 7:28 PM CDT
Astronomical Twilight 5:21 AM CDT 7:57 PM CDT
Moon 3:26 AM CDT (10/1) 4:31 PM CDT (10/1)
Length of Visible Light 12h 39m
Length of Day
11h 48m
Waning Crescent, 12% of the Moon is Illuminated
Oct 1
Waning Crescent
Oct 4
New
Oct 11
First Quarter
Oct 18
Full
Oct 26
Last Quarter

Hourly Weather History & Observations

Time (CDT) Temp. Heat Index Dew Point Humidity Pressure Visibility Wind Dir Wind Speed Gust Speed Precip Events Conditions
12:05 AM 62.6 °F - 60.8 °F 94% 30.03 in 1.5 mi Calm Calm - N/A   Clear
12:14 AM 62.6 °F - 59.0 °F 88% 30.03 in 0.8 mi Calm Calm - N/A   Clear
12:21 AM 62.6 °F - 60.8 °F 94% 30.04 in 1.2 mi Calm Calm - N/A   Clear
12:30 AM 60.8 °F - 57.2 °F 88% 30.04 in 3.0 mi Calm Calm - N/A   Clear
12:53 AM 61.0 °F - 57.9 °F 90% 30.03 in 4.0 mi Calm Calm - N/A   Clear
1:07 AM 60.8 °F - 59.0 °F 94% 30.04 in 1.5 mi Calm Calm - N/A   Clear
1:20 AM 62.6 °F - 59.0 °F 88% 30.04 in 3.0 mi Calm Calm - N/A   Clear
1:34 AM 62.6 °F - 59.0 °F 88% 30.04 in 1.8 mi Calm Calm - N/A   Clear
1:53 AM 61.0 °F - 57.9 °F 90% 30.04 in 2.5 mi Calm Calm - N/A   Clear
2:05 AM 60.8 °F - 57.2 °F 88% 30.04 in 5.0 mi Calm Calm - N/A   Partly Cloudy
2:53 AM 60.1 °F - 57.9 °F 93% 30.03 in 1.8 mi Calm Calm - N/A   Clear
3:19 AM 60.8 °F - 57.2 °F 88% 30.05 in 2.0 mi Calm Calm - N/A   Scattered Clouds
3:32 AM 60.8 °F - 57.2 °F 88% 30.05 in 5.0 mi Calm Calm - N/A   Mostly Cloudy
3:53 AM 61.0 °F - 57.9 °F 90% 30.04 in 7.0 mi Calm Calm - N/A   Mostly Cloudy
4:53 AM 62.1 °F - 59.0 °F 90% 30.05 in 8.0 mi SE 3.5 mph - N/A   Mostly Cloudy
5:51 AM 60.8 °F - 57.2 °F 88% 30.08 in 1.5 mi Calm Calm - N/A   Partly Cloudy
5:53 AM 60.1 °F - 57.9 °F 93% 30.07 in 1.0 mi SE 3.5 mph - N/A   Partly Cloudy
6:03 AM 59.0 °F - 57.2 °F 94% 30.09 in 3.0 mi ESE 3.5 mph - N/A   Partly Cloudy
6:53 AM 61.0 °F - 57.9 °F 90% 30.09 in 7.0 mi East 3.5 mph - N/A   Partly Cloudy
7:53 AM 64.0 °F - 60.1 °F 87% 30.11 in 10.0 mi East 4.6 mph - N/A   Clear
8:53 AM 68.0 °F - 62.1 °F 81% 30.12 in 10.0 mi SSE 5.8 mph - N/A   Partly Cloudy
9:53 AM 73.9 °F - 64.0 °F 71% 30.12 in 10.0 mi South 5.8 mph - N/A   Clear
10:53 AM 77.0 °F - 64.0 °F 64% 30.12 in 10.0 mi South 5.8 mph - N/A   Clear
11:53 AM 81.0 °F 82.7 °F 64.9 °F 58% 30.11 in 10.0 mi SW 5.8 mph - N/A   Clear
12:35 PM 80.6 °F 82.7 °F 66.2 °F 61% 30.11 in 10.0 mi Variable 5.8 mph - N/A   Mostly Cloudy
12:53 PM 81.0 °F 82.7 °F 64.9 °F 58% 30.09 in 10.0 mi SW 6.9 mph - N/A   Overcast
1:10 PM 82.4 °F 83.9 °F 64.4 °F 54% 30.10 in 10.0 mi West 3.5 mph - N/A   Overcast
1:53 PM 82.9 °F 84.6 °F 64.9 °F 54% 30.07 in 10.0 mi Variable 5.8 mph - N/A   Mostly Cloudy
2:53 PM 82.0 °F 83.8 °F 64.9 °F 56% 30.05 in 10.0 mi Calm Calm - N/A   Clear
3:53 PM 82.9 °F 85.0 °F 66.0 °F 56% 30.04 in 10.0 mi South 3.5 mph - N/A   Partly Cloudy
4:53 PM 82.9 °F 84.6 °F 64.9 °F 54% 30.04 in 10.0 mi SSE 5.8 mph - N/A   Overcast
5:53 PM 82.0 °F 83.8 °F 64.9 °F 56% 30.04 in 10.0 mi South 3.5 mph - N/A   Mostly Cloudy
6:53 PM 77.0 °F - 66.9 °F 71% 30.06 in 10.0 mi Calm Calm - N/A   Mostly Cloudy
7:53 PM 73.9 °F - 68.0 °F 82% 30.07 in 10.0 mi SSE 3.5 mph - N/A   Clear
8:53 PM 72.0 °F - 66.9 °F 84% 30.08 in 10.0 mi Calm Calm - N/A   Clear
9:53 PM 70.0 °F - 66.0 °F 87% 30.09 in 10.0 mi Calm Calm - N/A   Clear
10:53 PM 69.1 °F - 66.0 °F 90% 30.09 in 9.0 mi Calm Calm - N/A   Clear
11:53 PM 68.0 °F - 64.9 °F 90% 30.09 in 6.0 mi Calm Calm - N/A   Clear